{"data":{"norad_id":43642,"epoch":"2026-05-25T05:08:24.975744Z","epoch_age_seconds":60014,"freshness":"FRESH","line1":"1 43642U 18077A   26145.21417796  .00000636  00000+0  13290-3 0  9999","line2":"2 43642  98.1492 174.0346 0001128  98.5071 261.6259 14.63138920406481","mean_motion":14.6313892,"eccentricity":0.0001128,"inclination_deg":98.1492,"raan_deg":174.0346,"arg_perigee_deg":98.5071,"mean_anomaly_deg":261.6259,"bstar":0.0001329,"rev_number":40648,"period_min":98.418542512696,"perigee_km":682.26032248505,"apogee_km":683.853327812,"semimajor_km":7061.1938251485,"source":"CELESTRAK","updated_at":"2026-05-25T13:37:55.863790Z"}}